If you wish to contribute or participate in the discussions about articles you are invited to join SKYbrary as a registered user

 Actions

Capitan FAP Pedro Canga Rodriguez Airport

From SKYbrary Wiki

SPME /
Revision as of 09:21, 1 September 2017 by Editor1 (talk | contribs)
(diff) ← Older revision | Latest revision (diff) | Newer revision → (diff)
Airport
ICAO: SPME – IATA: TBP
Summary
Name Capitan FAP Pedro Canga Rodriguez Airport
Region South America and Caribbean
Territory Peru PE.gif
Location Tumbes, Tumbes
Serving Tumbes
Elevation 35.052 m
115 ft
115 ft35.052 m
Type medium airport
Coordinates 3° 33' 9.10" S, 80° 22' 52.88" W
Runways
Designator Length Width Surface ROPS
14/32 2500 m8,202.1 ft
45 m147.638 ft
ASP /


METAR
Observation SPME 140200Z 27004KT 9999 BKN011 23/19 Q1011 RMK BIRD HAZARD RWY 32/14 PP000
Station Tumbes
Date/Time 14 December 2019 02:00:00
Wind direction 270°
Wind speed 04 kts
Lowest cloud amount broken clouds
Temperature 23°C
Dew point 19°C
Humidity 78%
QNH 1011 hPa
Weather condition n/a

Airport serving Tumbes, Peru. It is the main airport of the Tumbes Region.

Climatology

Warm Desert climate (Köppen climate classification BWh).

Maps

Terrain

Loading map...

Airport Layout

Loading map...


Accidents & Serious Incidents at or in vicinity of SPME

None on SKYbrary